Change the Weather History Date:

Saturday, February 25, 2012

  Actual Average Record
Temperature  
Mean Temperature 32 °F -  
Max Temperature 39 °F 35 °F 48 °F (2002)
Min Temperature 26 °F 16 °F -2 °F (2009)
Degree Days  
Heating Degree Days 32    
Moisture  
Dew Point 23 °F    
Average Humidity 65    
Maximum Humidity 93    
Minimum Humidity 47    
Precipitation  
Precipitation 0.07 in - - ()
Sea Level Pressure  
Sea Level Pressure 29.30 in    
Wind  
Wind Speed 15 mph (West)    
Max Wind Speed 29 mph    
Max Gust Speed 40 mph    
Visibility 10 miles    
Events      
Averages and records for this station are not official NWS values.
T = Trace of Precipitation, MM = Missing Value Source: NWS Daily Summary

Daily Weather History Graph

Daily Weather History Graph

Search for Another Location

Airport or City:

Trip Planner

Search our weather history database for the weather conditions in past years. The results will help you decide how hot, cold, wet, or windy it might be!

Date:

Astronomy

Feb. 25, 2012 Rise Set
Actual Time 6:26 AM EST 5:25 PM EST
Civil Twilight 5:57 AM EST 5:54 PM EST
Nautical Twilight 5:24 AM EST 6:27 PM EST
Astronomical Twilight 4:51 AM EST 7:01 PM EST
Moon 7:40 AM EST (2/25) 9:33 PM EST (2/25)
Length of Visible Light 11h 57m
Length of Day
10h 59m
Waxing Crescent, 13% of the Moon is Illuminated
Feb 25
Waxing Crescent
Feb 29
First Quarter
Mar 8
Full
Mar 14
Last Quarter
Mar 22
New

Hourly Weather History & Observations

Time (EST) Temp. Windchill Dew Point Humidity Pressure Visibility Wind Dir Wind Speed Gust Speed Precip Events Conditions
12:15 AM 33.8 °F 27.0 °F 32.0 °F 93% 29.15 in 4.0 mi NW 8.1 mph - 0.02 in   Overcast
12:35 AM 33.8 °F 26.4 °F 30.2 °F 87% 29.17 in 5.0 mi WNW 9.2 mph - 0.03 in   Overcast
12:55 AM 33.8 °F 27.7 °F 32.0 °F 93% 29.14 in 9.0 mi WNW 6.9 mph - 0.04 in   Mostly Cloudy
1:35 AM 33.8 °F 27.7 °F 30.2 °F 87% 29.12 in 10.0 mi WNW 6.9 mph - 0.01 in   Partly Cloudy
1:55 AM 33.8 °F 28.6 °F 30.2 °F 87% 29.12 in 10.0 mi WNW 5.8 mph - 0.01 in   Scattered Clouds
2:15 AM 33.8 °F - 30.2 °F 87% 29.12 in 10.0 mi Calm Calm - 0.01 in   Mostly Cloudy
2:35 AM 33.8 °F 27.7 °F 30.2 °F 87% 29.13 in 10.0 mi WSW 6.9 mph - 0.01 in   Overcast
3:15 AM 33.8 °F 25.3 °F 30.2 °F 87% 29.12 in 10.0 mi WSW 11.5 mph - N/A   Clear
4:15 AM 33.8 °F 24.3 °F 30.2 °F 87% 29.12 in 10.0 mi WSW 13.8 mph - N/A   Overcast
4:35 AM 33.8 °F 23.2 °F 32.0 °F 93% 29.12 in 10.0 mi WSW 17.3 mph 24.2 mph N/A   Overcast
4:55 AM 35.6 °F 25.2 °F 28.4 °F 75% 29.12 in 10.0 mi WSW 18.4 mph 25.3 mph N/A   Overcast
5:15 AM 33.8 °F 24.3 °F 28.4 °F 81% 29.13 in 10.0 mi WSW 13.8 mph 28.8 mph N/A   Mostly Cloudy
5:35 AM 33.8 °F 23.5 °F 28.4 °F 81% 29.13 in 10.0 mi WSW 16.1 mph 23.0 mph N/A   Partly Cloudy
5:55 AM 33.8 °F 23.2 °F 28.4 °F 81% 29.13 in 10.0 mi WSW 17.3 mph 24.2 mph N/A   Partly Cloudy
6:15 AM 33.8 °F 23.2 °F 26.6 °F 75% 29.13 in 10.0 mi WSW 17.3 mph 21.9 mph N/A   Clear
6:35 AM 33.8 °F 22.8 °F 26.6 °F 75% 29.13 in 10.0 mi WSW 18.4 mph 26.5 mph N/A   Clear
7:15 AM 35.6 °F 24.8 °F 28.4 °F 75% 29.15 in 10.0 mi WSW 19.6 mph 25.3 mph N/A   Clear
7:35 AM 35.6 °F 24.8 °F 26.6 °F 70% 29.16 in 10.0 mi WSW 19.6 mph 36.8 mph 0.01 in   Clear
7:55 AM 35.6 °F 25.5 °F 26.6 °F 70% 29.17 in 10.0 mi WSW 17.3 mph 27.6 mph 0.01 in   Partly Cloudy
8:15 AM 35.6 °F 24.8 °F 28.4 °F 75% 29.17 in 10.0 mi WSW 19.6 mph 26.5 mph N/A   Partly Cloudy
8:35 AM 35.6 °F 24.8 °F 26.6 °F 70% 29.18 in 10.0 mi WSW 19.6 mph 34.5 mph N/A   Clear
8:56 AM 37.4 °F 26.9 °F 26.6 °F 65% 29.18 in 10.0 mi West 20.7 mph 31.1 mph N/A   Partly Cloudy
9:15 AM 37.4 °F 27.2 °F 24.8 °F 60% 29.19 in 10.0 mi West 19.6 mph 36.8 mph N/A   Scattered Clouds
9:35 AM 35.6 °F 25.5 °F 26.6 °F 70% 29.20 in 10.0 mi WSW 17.3 mph 31.1 mph N/A   Mostly Cloudy
9:55 AM 37.4 °F 25.4 °F 28.4 °F 70% 29.19 in 10.0 mi West 27.6 mph 40.3 mph N/A   Scattered Clouds
10:15 AM 37.4 °F 26.6 °F 26.6 °F 65% 29.20 in 10.0 mi West 21.9 mph 29.9 mph N/A   Mostly Cloudy
11:35 AM 37.4 °F 25.2 °F 24.8 °F 60% 29.20 in 10.0 mi WSW 28.8 mph 35.7 mph N/A   Mostly Cloudy
11:55 AM 39.2 °F 29.0 °F 26.6 °F 61% 29.21 in 10.0 mi West 21.9 mph 38.0 mph N/A   Overcast
12:15 PM 37.4 °F 25.6 °F 23.0 °F 56% 29.21 in 10.0 mi WSW 26.5 mph 35.7 mph N/A   Overcast
12:35 PM 39.2 °F 29.3 °F 24.8 °F 56% 29.21 in 10.0 mi West 20.7 mph 33.4 mph N/A   Overcast
12:55 PM 39.2 °F 29.0 °F 24.8 °F 56% 29.22 in 10.0 mi West 21.9 mph 31.1 mph N/A   Mostly Cloudy
1:35 PM 37.4 °F 26.9 °F 21.2 °F 52% 29.24 in 10.0 mi West 20.7 mph 33.4 mph N/A   Overcast
1:55 PM 37.4 °F 26.1 °F 24.8 °F 60% 29.25 in 10.0 mi West 24.2 mph 38.0 mph N/A   Overcast
2:15 PM 37.4 °F 27.5 °F 24.8 °F 60% 29.26 in 10.0 mi West 18.4 mph 36.8 mph N/A   Overcast
2:35 PM 37.4 °F 26.6 °F 23.0 °F 56% 29.27 in 10.0 mi West 21.9 mph 40.3 mph N/A   Overcast
2:55 PM 37.4 °F 26.6 °F 21.2 °F 52% 29.28 in 10.0 mi West 21.9 mph 29.9 mph N/A   Overcast
3:15 PM 37.4 °F 26.6 °F 21.2 °F 52% 29.30 in 10.0 mi West 21.9 mph 31.1 mph N/A   Overcast
3:35 PM 37.4 °F 28.5 °F 19.4 °F 48% 29.32 in 10.0 mi West 15.0 mph 27.6 mph N/A   Overcast
3:55 PM 37.4 °F 27.8 °F 19.4 °F 48% 29.33 in 10.0 mi West 17.3 mph 32.2 mph N/A   Overcast
4:15 PM 37.4 °F 27.8 °F 19.4 °F 48% 29.34 in 10.0 mi West 17.3 mph 31.1 mph N/A   Overcast
4:35 PM 35.6 °F 25.2 °F 17.6 °F 48% 29.35 in 10.0 mi West 18.4 mph 29.9 mph N/A   Overcast
5:15 PM 35.6 °F 26.6 °F 17.6 °F 48% 29.38 in 10.0 mi West 13.8 mph 25.3 mph N/A   Overcast
5:35 PM 35.6 °F 28.0 °F 19.4 °F 52% 29.40 in 10.0 mi WNW 10.4 mph 18.4 mph N/A   Overcast
5:55 PM 35.6 °F 28.6 °F 21.2 °F 56% 29.42 in 10.0 mi West 9.2 mph 21.9 mph N/A   Overcast
6:35 PM 33.8 °F 23.9 °F 19.4 °F 56% 29.46 in 10.0 mi WNW 15.0 mph 24.2 mph N/A   Overcast
6:55 PM 33.8 °F 22.8 °F 17.6 °F 52% 29.48 in 10.0 mi West 18.4 mph 27.6 mph N/A   Mostly Cloudy
7:15 PM 33.8 °F 22.5 °F 17.6 °F 52% 29.49 in 10.0 mi West 19.6 mph 27.6 mph N/A   Mostly Cloudy
7:35 PM 33.8 °F 23.5 °F 17.6 °F 52% 29.50 in 10.0 mi West 16.1 mph 23.0 mph N/A   Overcast
7:55 PM 32.0 °F 20.1 °F 21.2 °F 64% 29.51 in 10.0 mi West 19.6 mph 27.6 mph N/A   Mostly Cloudy
8:15 PM 30.2 °F 17.8 °F 19.4 °F 64% 29.53 in 10.0 mi WNW 19.6 mph 32.2 mph N/A   Partly Cloudy
8:35 PM 30.2 °F 16.8 °F 15.8 °F 55% 29.55 in 10.0 mi West 23.0 mph 36.8 mph N/A   Clear
8:55 PM 30.2 °F 21.3 °F 12.2 °F 47% 29.57 in 10.0 mi West 10.4 mph 23.0 mph N/A   Clear
9:15 PM 28.4 °F 13.3 °F 10.4 °F 47% 29.57 in 10.0 mi WNW 27.6 mph 36.8 mph N/A   Clear
9:35 PM 28.4 °F 17.0 °F 15.8 °F 59% 29.61 in 10.0 mi WNW 15.0 mph 33.4 mph N/A   Clear
9:55 PM 28.4 °F 14.1 °F 12.2 °F 51% 29.61 in 10.0 mi West 24.2 mph 33.4 mph N/A   Clear
10:15 PM 28.4 °F 17.0 °F 10.4 °F 47% 29.64 in 10.0 mi West 15.0 mph 33.4 mph N/A   Clear
10:35 PM 26.6 °F 12.7 °F 15.8 °F 64% 29.65 in 10.0 mi West 20.7 mph 33.4 mph N/A   Clear
10:55 PM 26.6 °F 12.7 °F 12.2 °F 55% 29.66 in 10.0 mi WNW 20.7 mph 38.0 mph N/A   Clear
11:35 PM 26.6 °F 14.3 °F 15.8 °F 64% 29.68 in 10.0 mi WNW 16.1 mph 28.8 mph N/A   Clear
11:55 PM 26.6 °F 13.1 °F 12.2 °F 55% 29.70 in 10.0 mi WNW 19.6 mph 35.7 mph N/A   Clear